TimeCST,TemperatureF,Dew PointF,Humidity,Sea Level PressureIn,VisibilityMPH,Wind Direction,Wind SpeedMPH,Gust SpeedMPH,PrecipitationIn,Events,Conditions,WindDirDegrees,DateUTC
12:15 AM,21.2,15.8,80,30.08,10.0,West,8.1,-,N/A,,Overcast,260,2012-12-30 06:15:00
12:55 AM,21.2,15.8,80,30.08,10.0,West,11.5,-,N/A,,Overcast,260,2012-12-30 06:55:00
1:15 AM,21.2,15.8,80,30.08,10.0,WSW,11.5,-,N/A,,Overcast,250,2012-12-30 07:15:00
1:35 AM,21.2,14.0,74,30.09,10.0,WSW,10.4,18.4,N/A,,Overcast,240,2012-12-30 07:35:00
1:55 AM,19.4,14.0,80,30.10,10.0,WSW,10.4,-,N/A,,Overcast,240,2012-12-30 07:55:00
2:15 AM,19.4,14.0,80,30.11,10.0,WSW,10.4,-,N/A,,Overcast,250,2012-12-30 08:15:00
2:35 AM,19.4,12.2,74,30.11,10.0,WSW,8.1,-,N/A,,Mostly Cloudy,250,2012-12-30 08:35:00
2:55 AM,17.6,12.2,79,30.11,10.0,SW,6.9,-,N/A,,Mostly Cloudy,230,2012-12-30 08:55:00
3:15 AM,19.4,14.0,80,30.11,10.0,SW,6.9,-,N/A,,Overcast,230,2012-12-30 09:15:00
3:35 AM,19.4,12.2,74,30.11,10.0,West,11.5,-,N/A,,Overcast,270,2012-12-30 09:35:00
3:55 AM,19.4,14.0,80,30.11,10.0,West,11.5,-,N/A,,Overcast,260,2012-12-30 09:55:00
4:15 AM,19.4,14.0,80,30.12,10.0,West,11.5,-,N/A,,Overcast,260,2012-12-30 10:15:00
4:35 AM,19.4,12.2,74,30.13,10.0,West,11.5,-,N/A,,Overcast,270,2012-12-30 10:35:00
4:55 AM,19.4,12.2,74,30.13,10.0,West,11.5,-,N/A,,Overcast,270,2012-12-30 10:55:00
5:15 AM,19.4,14.0,80,30.14,10.0,West,10.4,-,N/A,,Overcast,260,2012-12-30 11:15:00
5:35 AM,19.4,12.2,74,30.15,10.0,West,6.9,-,N/A,,Overcast,270,2012-12-30 11:35:00
5:55 AM,19.4,12.2,74,30.16,10.0,West,8.1,-,N/A,,Overcast,270,2012-12-30 11:55:00
6:15 AM,19.4,12.2,74,30.16,10.0,West,6.9,-,N/A,,Overcast,270,2012-12-30 12:15:00
6:35 AM,19.4,12.2,74,30.15,10.0,WSW,8.1,-,N/A,,Overcast,250,2012-12-30 12:35:00
6:55 AM,19.4,12.2,74,30.16,10.0,WSW,9.2,-,N/A,,Overcast,250,2012-12-30 12:55:00
7:15 AM,19.4,12.2,74,30.16,10.0,WSW,9.2,-,N/A,,Overcast,250,2012-12-30 13:15:00
7:35 AM,19.4,10.4,68,30.17,10.0,WSW,5.8,-,N/A,,Overcast,250,2012-12-30 13:35:00
7:55 AM,19.4,10.4,68,30.16,10.0,WSW,6.9,-,N/A,,Overcast,250,2012-12-30 13:55:00
8:15 AM,17.6,10.4,73,30.16,10.0,WSW,8.1,-,N/A,,Overcast,250,2012-12-30 14:15:00
8:35 AM,17.6,10.4,73,30.17,10.0,WSW,9.2,-,N/A,,Overcast,240,2012-12-30 14:35:00
8:55 AM,17.6,10.4,73,30.18,10.0,West,8.1,-,N/A,,Overcast,270,2012-12-30 14:55:00
9:15 AM,17.6,10.4,73,30.19,10.0,WSW,8.1,-,N/A,,Overcast,250,2012-12-30 15:15:00
9:35 AM,17.6,10.4,73,30.19,10.0,WSW,12.7,-,N/A,,Overcast,240,2012-12-30 15:35:00
9:55 AM,17.6,10.4,73,30.19,10.0,WSW,10.4,-,N/A,,Overcast,250,2012-12-30 15:55:00
10:15 AM,17.6,8.6,68,30.20,10.0,West,10.4,-,N/A,,Overcast,270,2012-12-30 16:15:00
10:35 AM,17.6,8.6,68,30.20,10.0,West,11.5,-,N/A,,Overcast,260,2012-12-30 16:35:00
10:55 AM,17.6,8.6,68,30.19,9.0,WSW,8.1,-,N/A,,Mostly Cloudy,250,2012-12-30 16:55:00
11:15 AM,17.6,10.4,73,30.19,10.0,West,11.5,-,N/A,,Overcast,270,2012-12-30 17:15:00
11:35 AM,17.6,8.6,68,30.17,9.0,WSW,8.1,-,N/A,,Overcast,250,2012-12-30 17:35:00
11:55 AM,17.6,10.4,73,30.17,9.0,WSW,12.7,-,N/A,,Overcast,240,2012-12-30 17:55:00
12:15 PM,17.6,12.2,79,30.17,5.0,WSW,13.8,-,N/A,,Overcast,240,2012-12-30 18:15:00
12:35 PM,17.6,10.4,73,30.16,8.0,SW,13.8,-,N/A,,Mostly Cloudy,230,2012-12-30 18:35:00
12:55 PM,17.6,10.4,73,30.14,9.0,WSW,10.4,-,N/A,,Partly Cloudy,240,2012-12-30 18:55:00
1:15 PM,17.6,10.4,73,30.14,9.0,WSW,9.2,-,N/A,,Clear,250,2012-12-30 19:15:00
1:35 PM,17.6,10.4,73,30.13,8.0,SW,10.4,-,N/A,,Clear,230,2012-12-30 19:35:00
1:55 PM,17.6,8.6,68,30.12,9.0,WSW,12.7,-,N/A,,Clear,240,2012-12-30 19:55:00
2:15 PM,17.6,8.6,68,30.12,9.0,WSW,9.2,-,N/A,,Clear,250,2012-12-30 20:15:00
2:35 PM,17.6,8.6,68,30.12,9.0,SW,11.5,-,N/A,,Clear,230,2012-12-30 20:35:00
2:55 PM,17.6,10.4,73,30.11,9.0,SSW,6.9,-,N/A,,Clear,200,2012-12-30 20:55:00
3:15 PM,17.6,8.6,68,30.10,9.0,SW,10.4,-,N/A,,Clear,220,2012-12-30 21:15:00
3:35 PM,17.6,8.6,68,30.10,8.0,SSW,9.2,-,N/A,,Clear,210,2012-12-30 21:35:00
3:55 PM,15.8,8.6,73,30.10,8.0,SSW,11.5,-,N/A,,Clear,210,2012-12-30 21:55:00
4:15 PM,15.8,6.8,68,30.10,8.0,SW,11.5,-,N/A,,Clear,220,2012-12-30 22:15:00
4:35 PM,15.8,6.8,68,30.09,7.0,SSW,10.4,-,N/A,,Clear,210,2012-12-30 22:35:00
4:55 PM,15.8,6.8,68,30.09,8.0,SW,9.2,-,N/A,,Clear,220,2012-12-30 22:55:00
5:15 PM,14.0,6.8,73,30.10,8.0,SW,9.2,-,N/A,,Clear,220,2012-12-30 23:15:00
5:35 PM,14.0,6.8,73,30.08,9.0,SSW,9.2,-,N/A,,Clear,210,2012-12-30 23:35:00
5:55 PM,14.0,6.8,73,30.08,9.0,SSW,10.4,-,N/A,,Clear,210,2012-12-30 23:55:00
6:15 PM,14.0,8.6,79,30.06,9.0,SSW,9.2,-,N/A,,Partly Cloudy,200,2012-12-31 00:15:00
6:35 PM,14.0,6.8,73,30.06,9.0,South,8.1,-,N/A,,Clear,190,2012-12-31 00:35:00
6:55 PM,14.0,6.8,73,30.06,9.0,SSW,8.1,-,N/A,,Clear,200,2012-12-31 00:55:00
7:15 PM,12.2,6.8,79,30.06,8.0,South,8.1,-,N/A,,Clear,190,2012-12-31 01:15:00
7:35 PM,12.2,6.8,79,30.05,8.0,SSW,6.9,-,N/A,,Clear,200,2012-12-31 01:35:00
7:55 PM,12.2,6.8,79,30.03,8.0,SSW,5.8,-,N/A,,Clear,200,2012-12-31 01:55:00
8:15 PM,12.2,8.6,85,30.02,9.0,South,5.8,-,N/A,,Clear,170,2012-12-31 02:15:00
8:35 PM,12.2,6.8,79,30.00,8.0,South,6.9,-,N/A,,Clear,180,2012-12-31 02:35:00
8:55 PM,12.2,8.6,85,30.00,8.0,South,4.6,-,N/A,,Partly Cloudy,180,2012-12-31 02:55:00
9:15 PM,15.8,10.4,79,29.99,9.0,SSW,6.9,-,N/A,,Mostly Cloudy,200,2012-12-31 03:15:00
9:35 PM,15.8,10.4,79,29.98,10.0,SSW,5.8,-,N/A,,Overcast,200,2012-12-31 03:35:00
9:55 PM,15.8,10.4,79,29.97,10.0,SSW,8.1,-,N/A,,Overcast,200,2012-12-31 03:55:00
10:15 PM,17.6,10.4,73,29.97,10.0,SSW,8.1,-,N/A,,Overcast,210,2012-12-31 04:15:00
10:35 PM,17.6,12.2,79,29.95,10.0,South,5.8,-,N/A,,Overcast,190,2012-12-31 04:35:00
10:55 PM,17.6,12.2,79,29.94,10.0,SSW,8.1,-,N/A,,Overcast,200,2012-12-31 04:55:00
11:15 PM,17.6,12.2,79,29.92,10.0,SW,6.9,-,N/A,,Mostly Cloudy,220,2012-12-31 05:15:00
11:35 PM,19.4,14.0,80,29.90,10.0,SW,6.9,-,N/A,,Clear,230,2012-12-31 05:35:00
11:55 PM,19.4,14.0,80,29.89,10.0,SW,6.9,-,N/A,,Clear,230,2012-12-31 05:55:00